Weather History for KCLT - January, 2003

Change the Weather History Date:

Saturday, January 25, 2003

  Actual Average Record
Temperature  
Mean Temperature 27 °F 40 °F  
Max Temperature 39 °F 51 °F 76 °F (1950)
Min Temperature 15 °F 30 °F 11 °F (1963)
Degree Days  
Heating Degree Days 38 24  
Month to date heating degree days 624  
Since 1 July heating degree days 1961  
Cooling Degree Days 0 0  
Month to date cooling degree days 0  
Year to date cooling degree days 0  
Moisture  
Dew Point 14 °F    
Average Humidity 55    
Maximum Humidity 81    
Minimum Humidity 33    
Precipitation  
Precipitation 0.00 in 0.11 in 2.27 in (1978)
Month to date precipitation 2.78  
Year to date precipitation 2.78  
Snow  
Snow 0.00 in 0.10 in 1.60 in (1926)
Month to date snowfall 1.7  
Since 1 July snowfall 2.1  
Snow Depth 3.00 in    
Sea Level Pressure  
Sea Level Pressure 30.34 in    
Wind  
Wind Speed 2 mph (South)    
Max Wind Speed 9 mph    
Max Gust Speed -    
Visibility 10 miles    
Events      
T = Trace of Precipitation, MM = Missing Value Source: NWS Daily Summary

Daily Weather History Graph

Daily Weather History Graph

Search for Another Location

Airport or City:

Trip Planner

Search our weather history database for the weather conditions in past years. The results will help you decide how hot, cold, wet, or windy it might be!

Date:

Astronomy

Jan. 25, 2003 Rise Set
Actual Time 7:27 AM EST 5:44 PM EST
Civil Twilight 7:00 AM EST 6:11 PM EST
Nautical Twilight 6:30 AM EST 6:42 PM EST
Astronomical Twilight 5:59 AM EST 7:12 PM EST
Moon 12:44 AM EST (1/25) 12:01 PM EST (1/25)
Length of Visible Light 11h 10m
Length of Day
10h 16m
Last Quarter, 46% of the Moon is Illuminated
Jan 25
Last Quarter
Feb 1
New
Feb 9
First Quarter
Feb 16
Full
Feb 23
Last Quarter

Hourly Weather History & Observations

Time (EST) Temp. Windchill Dew Point Humidity Pressure Visibility Wind Dir Wind Speed Gust Speed Precip Events Conditions
12:51 AM 19.9 °F - 12.0 °F 71% 30.40 in 10.0 mi Calm Calm - N/A   Partly Cloudy
1:51 AM 15.1 °F 9.4 °F 10.0 °F 80% 30.38 in 10.0 mi SSE 3.5 mph - N/A   Mostly Cloudy
2:51 AM 21.0 °F - 14.0 °F 74% 30.38 in 10.0 mi Calm Calm - N/A   Overcast
3:51 AM 19.9 °F - 14.0 °F 78% 30.38 in 10.0 mi Calm Calm - N/A   Overcast
4:51 AM 21.0 °F 16.2 °F 16.0 °F 81% 30.37 in 10.0 mi SSE 3.5 mph - N/A   Overcast
5:51 AM 21.9 °F - 16.0 °F 78% 30.38 in 10.0 mi Calm Calm - N/A   Overcast
6:51 AM 23.0 °F 17.0 °F 17.1 °F 78% 30.38 in 10.0 mi SSE 4.6 mph - N/A   Overcast
7:51 AM 23.0 °F - 14.0 °F 68% 30.40 in 10.0 mi Calm Calm - N/A   Mostly Cloudy
8:51 AM 24.1 °F - 14.0 °F 65% 30.40 in 10.0 mi Calm Calm - N/A   Mostly Cloudy
9:51 AM 26.1 °F 21.9 °F 15.1 °F 63% 30.42 in 10.0 mi South 3.5 mph - N/A   Partly Cloudy
10:51 AM 30.9 °F - 17.1 °F 57% 30.40 in 10.0 mi Calm Calm - N/A   Partly Cloudy
11:51 AM 36.0 °F 32.1 °F 14.0 °F 41% 30.38 in 10.0 mi SSW 4.6 mph - N/A   Partly Cloudy
12:51 PM 37.0 °F 34.5 °F 15.1 °F 41% 30.34 in 10.0 mi Variable 3.5 mph - N/A   Partly Cloudy
1:51 PM 37.9 °F 31.5 °F 15.1 °F 39% 30.31 in 10.0 mi South 9.2 mph - N/A   Scattered Clouds
2:51 PM 39.0 °F 32.8 °F 15.1 °F 38% 30.30 in 10.0 mi SSE 9.2 mph - N/A   Scattered Clouds
3:51 PM 39.9 °F 35.1 °F 12.9 °F 33% 30.29 in 10.0 mi South 6.9 mph - N/A   Mostly Cloudy
4:51 PM 37.9 °F 31.5 °F 18.0 °F 45% 30.30 in 10.0 mi SSE 9.2 mph - N/A   Overcast
5:51 PM 37.9 °F - 10.9 °F 33% 30.30 in 10.0 mi Calm Calm - N/A   Mostly Cloudy
6:51 PM 36.0 °F 33.3 °F 10.9 °F 36% 30.31 in 10.0 mi SSW 3.5 mph - N/A   Mostly Cloudy
7:51 PM 36.0 °F - 10.9 °F 36% 30.31 in 10.0 mi Calm Calm - N/A   Partly Cloudy
8:51 PM 32.0 °F 28.7 °F 14.0 °F 48% 30.30 in 10.0 mi SSE 3.5 mph - N/A   Partly Cloudy
9:51 PM 30.9 °F - 12.0 °F 46% 30.29 in 10.0 mi Calm Calm - N/A   Mostly Cloudy
10:51 PM 30.9 °F - 15.1 °F 52% 30.27 in 10.0 mi Calm Calm - N/A   Mostly Cloudy
11:51 PM 30.0 °F - 14.0 °F 51% 30.25 in 10.0 mi Calm Calm - N/A   Mostly Cloudy